Location: Tryon
(41.5533°N, 100.9574°W)
Time: 07:42:27
(UTC-05:00)

ISS - Visible Passes

Search period start: 21 October 2019 00:00
Search period end: 31 October 2019 00:00
Orbit: 411 x 421 km, 51.6° (Epoch: 21 October)

Date Brightness Start Highest point End Pass type
(mag) Time Alt. Az. Time Alt. Az. Time Alt. Az.
22 Oct -1.2 07:33:36 10° S 07:36:20 23° SE 07:39:04 10° E visible
23 Oct -0.7 06:46:11 10° SSE 06:47:56 14° SE 06:49:41 10° E visible
24 Oct -3.3 07:32:22 10° SW 07:35:42 66° SE 07:39:02 10° ENE visible
25 Oct -2.4 06:44:19 12° SSW 06:47:10 37° SE 06:50:18 10° ENE visible
26 Oct -1.5 05:58:30 21° SE 05:58:41 21° SE 06:01:19 10° E visible
26 Oct -3.4 07:31:57 10° WSW 07:35:13 47° NNW 07:38:30 10° NE visible
27 Oct -3.9 06:45:24 38° WSW 06:46:33 78° NW 06:49:55 10° NE visible
28 Oct -2.0 05:59:12 33° ENE 05:59:12 33° ENE 06:01:16 10° ENE visible
28 Oct -2.4 07:32:07 10° WNW 07:34:53 25° NNW 07:37:44 10° NE visible
29 Oct -2.9 06:45:47 33° NW 06:46:06 34° NNW 06:49:13 10° NE visible
30 Oct -1.5 05:59:20 21° NE 05:59:20 21° NE 06:00:40 10° NE visible
30 Oct -1.8 07:32:21 10° NW 07:34:41 17° NNW 07:36:59 10° NNE visible
